Location: The Saddle
(36.8333°N, 80.3417°W)
Time: 13:35:59
(UTC-04:00)

Transit 4A - All Passes

Search period start: 08 October 2024 00:00
Search period end: 18 October 2024 00:00
Orbit: 865 x 977 km, 66.8° (Epoch: 07 October)

Date Brightness Start Highest point End Pass type
(mag) Time Alt. Az. Time Alt. Az. Time Alt. Az.
08 Oct - 00:34:38 10° WNW 00:38:00 15° NW 00:41:25 10° N night (unlit)
08 Oct - 06:05:46 10° NNE 06:08:27 13° NE 06:11:08 10° ENE visible
08 Oct - 07:49:40 10° NNW 07:55:59 67° ENE 08:02:20 10° SE daylight
08 Oct - 09:37:32 10° WNW 09:41:43 19° WSW 09:45:55 10° SW daylight
08 Oct - 21:10:07 10° SSE 21:14:01 19° ESE 21:18:00 10° ENE night (unlit)
08 Oct - 22:53:59 10° SW 22:59:45 59° WNW 23:05:43 10° NNE night (unlit)
09 Oct - 00:46:12 10° NW 00:47:27 11° NW 00:48:41 10° NNW night (unlit)
09 Oct - 06:13:41 10° N 06:17:52 18° NE 06:22:03 10° E visible
09 Oct - 07:58:36 10° NNW 08:04:58 85° WSW 08:11:22 10° SSE daylight
09 Oct - 09:48:33 10° W 09:50:22 11° W 09:52:12 10° WSW daylight
09 Oct - 21:17:47 10° SSE 21:22:43 29° ESE 21:27:48 10° NE night (unlit)
09 Oct - 23:03:21 10° SW 23:08:50 40° NW 23:14:29 10° NNE night (unlit)
10 Oct - 06:22:03 10° N 06:27:10 25° NE 06:32:19 10° ESE visible
10 Oct - 08:07:40 10° NW 08:13:52 58° WSW 08:20:06 10° S daylight
10 Oct - 21:25:59 10° S 21:31:30 45° ESE 21:37:11 10° NE night (unlit)
10 Oct - 23:13:02 10° WSW 23:18:00 28° NW 23:23:07 10° N night (unlit)
11 Oct - 06:30:37 10° N 06:36:22 35° NE 06:42:10 10° ESE visible
11 Oct - 08:16:55 10° NW 08:22:42 38° WSW 08:28:31 10° S daylight
11 Oct - 21:34:32 10° SSW 21:40:20 70° ESE 21:46:21 10° NNE visible
11 Oct - 23:23:05 10° W 23:27:16 20° NW 23:31:34 10° N night (unlit)
12 Oct - 06:39:20 10° NNW 06:45:30 51° ENE 06:51:41 10° SE visible
12 Oct - 08:26:26 10° NW 08:31:28 25° WSW 08:36:32 10° SSW daylight
12 Oct - 20:01:12 10° SE 20:03:48 13° ESE 20:06:26 10° ENE visible
12 Oct - 21:43:24 10° SSW 21:49:16 79° WNW 21:55:21 10° NNE visible
12 Oct - 23:33:41 10° WNW 23:36:38 14° NW 23:39:38 10° NNW night (unlit)
13 Oct - 05:03:54 10° NNE 05:07:07 14° NE 05:10:21 10° ENE visible
13 Oct - 06:48:10 10° NNW 06:54:32 74° ENE 07:00:55 10° SSE visible
13 Oct - 08:36:26 10° WNW 08:40:10 16° WSW 08:43:54 10° SW daylight
13 Oct - 20:08:10 10° SSE 20:12:28 21° ESE 20:16:50 10° ENE visible
13 Oct - 21:52:34 10° SW 21:58:17 52° WNW 22:04:12 10° NNE visible
14 Oct - 05:12:00 10° N 05:16:30 20° NE 05:21:01 10° E visible
14 Oct - 06:57:09 10° NNW 07:03:29 77° WSW 07:09:52 10° SSE visible
14 Oct - 20:16:01 10° S 20:21:10 33° ESE 20:26:28 10° NE visible
14 Oct - 22:02:00 10° WSW 22:07:23 36° NW 22:12:56 10° NNE visible
15 Oct - 05:20:26 10° N 05:25:47 28° NE 05:31:08 10° ESE visible
15 Oct - 07:06:15 10° NW 07:12:22 51° WSW 07:18:30 10° S daylight
15 Oct - 20:24:19 10° S 20:29:58 51° ESE 20:35:47 10° NE visible
15 Oct - 22:11:47 10° WSW 22:16:35 25° NW 22:21:31 10° N visible
16 Oct - 05:29:03 10° NNW 05:34:57 39° NE 05:40:53 10° ESE visible
16 Oct - 07:15:34 10° NW 07:21:11 34° WSW 07:26:49 10° S daylight
16 Oct - 20:32:58 10° SSW 20:38:49 79° ESE 20:44:54 10° NNE visible
16 Oct - 22:21:57 10° W 22:25:53 18° NW 22:29:53 10° N visible
17 Oct - 03:54:39 10° NNE 03:56:18 11° NE 03:57:58 10° NE visible
17 Oct - 05:37:48 10° NNW 05:44:03 57° ENE 05:50:19 10° SE visible
17 Oct - 07:25:10 10° WNW 07:29:56 22° WSW 07:34:41 10° SSW daylight
17 Oct - 18:58:56 10° SE 19:02:13 15° ESE 19:05:31 10° ENE visible
17 Oct - 20:41:55 10° SW 20:47:46 70° WNW 20:53:50 10° NNE visible
17 Oct - 22:32:48 10° WNW 22:35:17 13° NW 22:37:47 10° NNW visible
